Regional Weather Roundup
Issued by NWS Cleveland, OH

Home | Current Version | Previous Version | Graphics & Text | Print | Product List | Glossary On
Versions: 1 2 3 4 5 6 7 8 9 10 11 12 13 14 15 16 17 18 19 20 21 22 23 24 25 26 27 28 29 30 31 32 33 34 35 36 37 38 39 40 41 42 43 44 45 46 47 48 49 50
000
ASUS41 KCLE 181502
RWRCLE
OHIO REGIONAL WEATHER ROUNDUP
NATIONAL WEATHER SERVICE CLEVELAND, OH
1000 AM EST WED JAN 18 2017

NOTE: "FAIR" INDICATES FEW OR NO CLOUDS BELOW 12,000 FEET WITH NO
SIGNIFICANT WEATHER AND/OR OBSTRUCTIONS TO VISIBILITY.

OHZ001>008-015>018-024>027-034-035-043-044-181600-
   NORTHWEST OHIO

CITY           SKY/WX    TMP DP  RH WIND       PRES   REMARKS
DEFIANCE       CLOUDY    37  32  82 W9        30.14R
FINDLAY        CLOUDY    37  33  85 W15       30.12R FOG
TOLEDO EXPRESS CLOUDY    35  35 100 W14       30.10R WCI  26
TOLEDO EXEC    CLOUDY    37  36  96 W13       30.12R
LIMA           CLOUDY    36  35  96 W16       30.14R FOG
$$

OHZ009>014-019>023-028>033-038-089-181600-
   NORTHEAST OHIO

CITY           SKY/WX    TMP DP  RH WIND       PRES   REMARKS
CLE-HOPKINS    CLOUDY    39  34  82 W10       30.10R
CLE-LAKEFRONT  CLOUDY    37  34  89 W14       30.07R
CUY CO. ARPT   CLOUDY    39  36  87 W17       30.07R
LORAIN-ELYRIA  CLOUDY    36  33  89 W12       30.09R FOG
ASHTABULA      CLOUDY    36  35  96 W13       30.06R
AKRON-CANTON   LGT RAIN  39  35  86 W13       30.08R FOG
WOOSTER        CLOUDY    36  33  89 W10       30.10R
MANSFIELD      CLOUDY    35  35 100 W10       30.09R FOG     WCI  27
YOUNGSTOWN     DRIZZLE   37  34  89 W12       30.05R
$$

OHZ042-051>053-060>062-070>072-077>081-181600-
  SOUTHWEST OHIO

CITY           SKY/WX    TMP DP  RH WIND       PRES   REMARKS
CINC-COVINGTON CLOUDY    38  36  92 NW7       30.19R
CINC-LUNKEN    CLOUDY    40  36  86 W8        30.21S
HAMILTON       CLOUDY    39  37  92 W6        30.20R
DAYTON         CLOUDY    36  34  92 W13       30.17R
WRIGHT-PAT AFB NOT AVBL
DAYTON GENERAL CLOUDY    37  35  92 W12       30.17R
WILMINGTON     CLOUDY    37  34  89 W6        30.16R
$$

OHZ036-037-039>041-045>050-054>059-063>069-073>076-082>088-181600-
  CENTRAL AND SOUTHEAST OHIO

CITY           SKY/WX    TMP DP  RH WIND       PRES   REMARKS
COLUMBUS       CLOUDY    40  34  79 W13       30.14R
OSU AIRPORT    CLOUDY    38  35  89 W13       30.14R
BOLTON FIELD   NOT AVBL
RICKENBACK AFB NOT AVBL
NEWARK         CLOUDY    38  34  85 W9        30.13R
MARION         CLOUDY    36  34  92 W10       30.13R FOG
LANCASTER      CLOUDY    41  35  79 W6        30.16R
ZANESVILLE     CLOUDY    40  33  76 W8        30.13R
NEW PHILLY     NOT AVBL
$$




USA.gov is the U.S. government's official web portal to all federal, state and local government web resources and services.